Showing default

LAPAN A2, 40931

Orbit data source: Space-Track

LAPAN A2, 40931 is a payload satellite owned by LAPAN (ID) in LEO that was launched on Mon, 28 Sep 2015 UTC via a PSLV-XL launch vehicle from the Sirharikota (SRI). Payloads include a variety of satellites, spacecraft, and rockets equipped with specific instruments for various scientific and technological missions. These include communications satellites like Starlink; space stations such as the ISS; scientific satellites like the Hubble; Earth observation satellites from companies like Planet Labs, Umbra, and HawkEye 360; GPS; miniature CubeSats for education and research; and military/defense satellites.

Not visible in the next 10 days
LAPAN A2 details
Identifier
40931, 2015-052B
Orbit
LEO
Last TLE update4 weeks ago
Origin
Flag of IDLAPAN (ID / INDO)
ManufacturerLAPAN
MissionOperational Civil Technology
Bus & MotorLAPAN-A2, Unknown motor
Mass76 kg wet, 76 kg dry
Launch date (UTC)
2015-09-28 (9 years ago)
Launch vehicle
PSLV-XL
Launch site
Sirharikota (SRI)
Object type
Payload
Rocket body
Debris
Shape & HBRBox, 0.8 m
Radar Cross Section0.800 m², Medium (>0.1 m² and < 1m²)

Expand to show TLE details & history

TLE from 4 weeks ago
0 LAPAN A2
1 40931U 15052B   24337.09180034  .00002217  00000-0  20975-3 0  9992
2 40931   5.9986 232.5457 0013173 302.5393  57.3463 14.78392648496340
Epoch: 2024-12-02T02:12Z
Definitive object data (Epoch: 2024-12-02T02:12:11.549Z)
Latitude
Longitude128.07697°
Altitude626.372 km
Speed7.551 km/s
True Right ascension15h 30m 10s
True Declination0° 00' 00"
Sunlit
Object was in daylight at TLE epoch
Visualization TLE readout
Latitude-1.44264°
Longitude-62.81321°
Altitude625.633 km
Speed7.552 km/s
Apparent Right ascension05h 17m 01s
Apparent Declination-28° 07' 26"
Sunlit
Object is in full shadow
Visualization observer readout
Local Sidereal Time21:19:50
Azimuth96.279° ESE
Elevation-39.307°
Doppler factor1
Orbital elements
Apogee altitude649.834 km
Perigee altitude631.343 km
Semi-major axis7,018.725 km
Eccentricity0.0013173
Inclination5.9986°
RAAN232.5457°
Arg. of periapsis302.5393°
True anomaly57.47351°
Mean anomaly57.3463°
Eccentric anomaly57.40989°
Mean motion3.6911 °/min
BSTAR0.00020975
Orbital period97.53 mins
Loading maneuver chart data...
Loading historical data...
Loading historical data...
Loading historical data...
Loading historical data...
Loading historical data...
Loading historical data...
Loading historical data...

LAPAN A2 Visibility forecast

Observer location: undefined°, undefined

LAPAN A2 is not visible in the next 10 days
Span
Click to sort rows by Start time (UTC) header in descending order
Start Az.
Max El. time (UTC)
Max El. Az.
Max El.
End time (UTC)
End Az.
|